SCP
0 0 0 0 0 0 0 0 0 0 0 0 0 0 0 0 0 0 0 0 0 0 1 2 3 4 3 3 2 2 2 2 2 2 1 2 2 2 2 2 2 1 1 1
0 0 0 0 0 0 0 0 0 0 0 0 0 0 0 0 0 0 0 0 0 0 1 2 3 3 3 3 2 2 2 2 2 2 1 2 2 2 2 2 1 1 1 1
0 0 0 0 0 0 0 0 0 0 0 0 0 0 0 0 0 0 0 0 0 0 1 2 2 3 2 2 2 2 2 3 2 1 1 2 2 2 2 1 1 1 1 1
0 0 0 0 0 0 0 0 0 0 0 0 0 0 0 0 0 0 0 0 0 0 1 1 2 2 2 2 2 2 2 2 2 1 1 2 2 2 2 1 1 1 1 1
0 0 0 0 0 0 0 0 0 0 0 0 0 0 0 0 0 0 0 0 0 1 1 1 1 2 2 2 2 2 2 2 2 1 1 2 2 2 2 2 1 1 1 1
0 0 0 0 0 0 0 0 0 0 0 0 0 0 0 0 0 0 0 0 0 0 1 1 1 1 1 2 2 2 2 2 2 1 1 2 2 2 2 2 1 1 1 0
0 0 0 0 0 0 0 0 0 0 0 0 0 0 0 0 0 0 0 0 0 0 0 1 1 1 1 1 1 1 2 2 1 1 1 2 2 2 2 2 1 1 0 0
0 0 0 0 0 0 0 0 0 0 0 0 0 0 0 0 0 0 0 0 0 0 0 1 1 1 1 1 1 1 1 1 1 1 1 2 2 2 2 1 1 1 0 0
0 0 0 0 0 0 0 0 0 0 0 0 0 0 0 0 0 0 0 0 0 0 0 0 0 0 0 1 1 1 1 1 1 1 1 1 2 2 1 1 1 1 0 0
0 0 0 0 0 0 0 0 0 0 0 0 0 0 0 0 0 0 0 0 0 0 0 0 0 0 0 0 0 1 1 1 1 1 1 1 2 2 1 1 1 1 0 0
0 0 0 0 0 0 0 0 0 0 0 0 0 0 0 0 0 0 0 0 0 0 0 0 0 0 0 0 0 0 1 1 1 1 1 1 2 2 1 1 1 1 0 0
0 0 0 0 0 0 0 0 0 0 0 0 0 0 0 0 0 0 0 0 0 0 0 0 0 0 0 0 0 0 0 0 0 1 1 1 1 1 1 1 1 1 0 0
0 0 0 0 0 0 0 0 0 0 0 0 0 0 0 0 0 0 0 0 0 0 0 0 0 0 0 0 0 0 0 0 0 0 0 1 1 1 1 0 0 0 0 1
0 0 0 0 0 0 0 0 0 0 0 0 0 0 0 0 0 0 0 0 0 0 0 0 0 0 0 0 0 0 0 0 0 0 0 1 1 0 0 0 0 0 0 1
0 0 0 0 0 0 0 0 0 0 0 0 0 0 0 0 0 0 0 0 0 0 0 0 0 0 0 0 0 0 0 0 0 0 1 1 1 0 0 0 0 0 0 0
0 0 0 0 0 0 0 0 0 0 0 0 0 0 0 0 0 0 0 0 0 0 0 0 0 0 0 0 0 0 0 0 0 1 1 1 1 0 0 0 0 0 0 0
0 0 0 0 0 0 0 0 0 0 0 0 0 0 0 0 0 0 0 0 0 0 0 0 0 0 0 0 0 0 0 0 0 1 1 1 1 1 1 1 1 0 0 0
0 0 0 0 0 0 0 0 0 0 0 0 0 0 0 0 0 0 0 0 0 0 0 0 0 0 0 0 0 0 0 0 0 0 1 1 1 1 1 1 1 1 1 0
0 0 0 0 0 0 0 0 0 0 0 0 0 0 0 0 0 0 0 0 0 0 0 0 0 0 0 0 0 0 0 0 0 0 0 1 1 1 1 1 1 1 1 1
0 0 0 0 0 0 0 0 0 0 0 0 0 0 0 0 0 0 0 0 0 0 0 0 0 0 0 0 0 0 0 0 0 0 0 0 1 1 1 1 1 1 1 1
0 0 0 0 0 0 0 0 0 0 0 0 0 0 0 0 0 0 0 0 0 0 0 0 0 0 0 0 0 0 0 0 0 0 0 0 1 1 1 1 1 1 1 1
0 0 0 0 0 0 0 0 0 0 0 0 0 0 0 0 0 0 0 0 0 0 0 0 0 0 0 0 0 0 0 0 0 0 0 0 0 1 1 1 1 1 1 1
0 0 0 0 0 0 0 0 0 0 0 0 0 0 0 0 0 0 0 0 0 0 0 0 0 0 0 0 0 0 0 0 0 0 0 0 0 1 1 1 1 1 1 1
0 0 0 0 0 0 0 0 0 0 0 0 0 0 0 0 0 0 0 0 0 0 0 0 0 0 0 0 0 0 0 0 0 0 0 0 0 0 0 0 0 1 1 1
0 0 0 0 0 0 0 0 0 0 0 0 0 0 0 0 0 0 0 0 0 0 0 0 0 0 0 0 0 0 0 0 0 0 0 0 0 0 0 0 0 0 1 1
0 0 0 0 0 0 0 0 0 0 0 0 0 0 0 0 0 0 0 0 0 0 0 0 0 0 0 0 0 0 0 0 0 0 0 0 0 0 0 0 0 0 0 0
Wind_Speed
4 5 6 7 7 9 11 12 14 13 11 10 12 15 15 11 9 8 8 8 9 10 9 7 6 6 6 7 8 9 9 9 8 7 7 7 7 7 6 6 10 11 11 11
4 7 9 8 7 10 11 12 13 12 9 10 12 16 14 11 9 8 8 8 9 8 7 5 4 5 7 7 8 9 10 10 10 8 7 6 6 6 6 6 8 11 11 11
8 7 7 8 9 10 11 11 11 13 13 9 10 11 10 8 8 8 6 6 6 7 5 4 5 5 6 6 8 8 9 10 10 9 6 5 5 5 5 7 7 9 11 11
7 7 8 9 9 10 11 9 11 12 10 6 4 8 8 7 7 5 3 3 4 5 4 3 3 4 5 6 5 7 8 9 10 10 9 10 8 7 7 7 7 9 11 11
7 6 8 10 10 9 10 10 11 12 11 10 8 7 6 4 4 1 2 3 3 4 3 3 3 3 3 5 5 4 6 8 10 10 10 10 8 7 6 7 9 10 10 11
12 9 7 7 8 8 8 8 11 9 6 6 6 5 4 2 2 1 2 2 3 2 2 2 2 1 1 2 4 4 5 7 8 10 11 11 11 10 10 10 10 10 8 9
8 7 5 4 6 5 4 4 4 2 3 5 4 4 4 1 1 1 2 2 2 2 1 1 1 1 1 1 3 4 5 6 8 10 10 11 11 12 13 11 10 10 9 8
6 6 2 1 3 3 4 3 2 3 3 4 4 4 2 1 2 2 3 3 4 4 3 2 1 1 2 2 2 3 5 6 7 9 10 10 10 8 9 10 9 11 9 10
4 6 4 4 4 4 3 3 4 5 6 5 5 4 3 1 3 3 4 4 4 4 3 2 2 2 1 2 2 4 4 5 7 7 8 9 10 9 9 9 9 9 9 10
3 7 8 6 3 5 5 4 2 2 4 5 5 4 3 1 3 3 3 4 4 4 4 3 2 2 2 1 2 3 3 4 5 6 6 6 9 10 9 9 10 9 11 11
3 5 7 4 4 4 4 4 4 4 4 4 4 3 2 3 3 3 3 4 5 5 5 4 4 3 2 2 2 3 3 3 3 4 5 5 6 9 9 9 9 10 10 12
3 4 6 7 6 5 5 5 4 4 5 4 5 5 2 2 3 4 4 4 4 4 4 4 4 4 3 3 2 3 3 2 3 4 4 4 5 7 8 9 10 10 10 11
2 3 5 4 3 2 3 4 5 4 5 6 7 7 1 2 4 5 5 5 4 4 4 5 4 4 4 3 3 2 2 3 3 3 4 4 4 5 8 8 8 10 10 10
4 5 7 8 6 3 6 8 7 6 6 8 10 11 8 6 6 6 6 5 4 3 3 4 4 4 4 4 4 3 3 3 4 3 3 4 5 5 6 6 7 8 9 9
3 6 8 13 14 12 13 14 12 12 12 12 13 14 12 8 8 7 6 5 4 4 5 4 4 4 4 4 5 5 4 4 4 3 3 3 4 4 4 5 7 7 7 7
4 6 6 11 12 13 17 16 15 16 15 16 16 17 11 8 7 7 5 4 4 4 5 5 5 5 5 4 5 5 6 5 5 4 3 3 2 2 3 4 6 7 7 7
4 5 5 8 8 10 13 12 14 14 12 12 14 13 7 7 7 5 4 3 4 4 4 4 4 4 4 4 4 5 5 6 5 4 4 3 2 1 3 4 5 7 7 7
6 6 5 5 5 11 9 3 6 9 11 10 10 8 7 6 5 3 2 2 3 4 4 4 4 4 4 4 4 4 4 5 5 5 4 3 2 2 2 3 5 6 6 7
10 7 5 4 6 11 8 5 5 6 7 6 7 6 5 5 4 3 2 1 2 3 3 3 3 3 3 3 3 4 4 4 4 5 5 4 3 2 2 3 5 5 5 6
8 8 6 6 7 8 4 0 1 0 6 4 4 4 4 3 3 4 3 3 3 3 3 3 4 3 3 3 3 4 4 4 4 5 5 5 4 3 3 4 4 3 4 5
6 7 10 11 9 9 5 2 4 3 6 1 1 2 3 4 4 3 4 4 3 3 3 3 4 3 3 3 3 4 4 4 5 5 5 5 4 4 3 3 3 3 3 4
9 7 8 7 9 11 3 4 5 6 2 2 2 3 4 5 4 4 4 4 3 3 3 3 4 4 3 3 3 3 4 4 5 5 5 5 4 4 3 3 3 3 4 4
9 10 6 9 9 5 2 5 5 3 4 4 4 4 5 5 6 6 5 4 3 3 3 3 3 4 4 3 3 3 4 5 5 5 5 5 5 4 3 3 3 3 3 3
6 7 6 7 8 7 6 6 5 4 5 5 5 5 5 6 6 6 5 4 3 3 3 3 3 4 4 4 3 4 4 4 5 6 6 5 4 4 2 2 2 3 3 4
6 4 7 11 9 8 7 7 7 6 5 5 5 5 6 6 7 7 5 5 4 4 3 3 3 4 4 4 4 4 3 4 5 6 5 5 4 3 2 1 2 3 4 5
8 9 9 9 6 6 6 5 5 6 5 5 6 6 6 6 6 6 5 4 4 4 3 4 4 4 4 4 5 4 3 3 4 5 5 4 3 2 1 1 1 2 3 4
Wind_Direction
212 240 254 260 258 275 289 281 282 284 284 278 274 277 277 270 264 260 257 261 256 258 247 231 214 199 200 197 191 195 194 189 176 175 174 171 173 167 168 174 169 166 163 162
266 255 271 276 282 282 282 281 282 291 294 290 276 275 272 258 249 248 251 252 254 263 258 223 209 197 199 199 196 198 193 188 183 183 178 171 165 170 167 169 174 170 166 165
268 277 297 287 283 286 282 279 287 294 303 277 275 272 260 254 250 242 245 246 254 261 258 240 209 198 197 203 199 201 194 189 186 179 171 162 163 165 170 174 180 175 168 166
277 278 292 289 281 290 286 289 297 297 299 283 271 289 274 257 252 236 246 255 266 271 260 265 240 206 201 201 206 202 195 195 188 179 177 176 181 185 182 172 176 177 174 171
277 291 292 281 276 282 281 303 297 285 280 278 261 262 271 248 257 260 281 285 273 263 244 245 253 233 220 195 191 207 200 197 187 184 184 183 188 188 173 169 175 182 179 178
266 270 278 283 287 281 295 307 290 269 259 258 243 243 273 246 249 288 298 329 314 276 244 234 266 274 251 199 188 203 203 198 194 192 190 191 192 188 178 175 181 182 179 180
291 262 243 257 289 284 305 326 314 297 236 246 274 266 262 254 92 46 11 354 334 337 317 230 266 247 264 233 208 207 209 206 200 200 199 198 196 193 188 180 183 183 179 180
300 294 272 241 255 276 268 252 263 289 275 292 288 251 256 124 86 49 39 27 16 3 1 358 295 261 234 244 245 230 219 216 207 204 208 204 198 195 192 186 184 188 183 181
290 284 295 284 264 247 270 250 266 278 278 270 248 242 244 76 46 32 22 27 14 354 356 353 348 321 262 231 238 247 236 226 217 208 213 208 200 197 194 188 188 190 183 178
272 286 286 287 269 233 241 274 300 268 279 272 263 260 269 42 14 12 15 8 1 356 358 352 340 325 320 282 260 258 248 241 230 217 214 218 207 202 195 190 194 193 186 179
243 265 286 276 226 235 229 238 243 257 255 270 280 274 337 28 29 22 20 1 356 359 359 355 346 335 331 339 307 267 249 252 246 237 225 220 217 206 198 194 197 194 188 181
237 252 270 259 247 239 240 241 231 247 265 258 269 273 321 24 27 6 356 351 352 350 346 345 345 344 342 344 328 309 292 269 261 252 246 224 225 210 201 201 198 193 192 187
235 239 286 285 233 248 261 255 253 263 270 262 261 263 282 345 340 344 346 343 345 342 342 342 344 349 344 334 326 316 311 315 299 264 241 227 218 209 204 206 203 194 191 189
235 226 226 248 265 285 272 270 260 247 252 260 253 266 282 301 308 315 319 326 328 328 330 334 334 339 344 339 331 327 329 330 311 292 251 236 216 210 210 210 204 195 191 191
230 250 250 259 268 272 266 264 257 246 245 255 265 270 278 291 294 303 309 316 328 333 336 335 336 336 343 347 343 340 335 335 319 304 289 260 236 217 209 211 204 195 192 192
230 261 275 270 264 265 266 262 256 255 253 255 263 269 274 279 283 290 298 310 321 323 329 337 338 337 338 339 339 339 339 339 335 323 307 294 264 228 213 218 199 191 193 189
222 245 267 271 282 285 266 249 244 244 243 247 256 263 280 284 284 292 300 311 314 318 328 332 333 329 324 327 331 329 329 331 332 318 309 313 305 273 232 220 201 192 193 189
223 235 250 272 282 250 246 234 239 248 251 247 258 270 276 279 285 287 296 308 318 329 326 322 321 319 316 323 326 322 322 323 323 317 310 314 296 270 261 221 207 200 192 192
214 218 241 249 258 269 267 249 238 248 265 253 265 280 294 296 296 298 314 310 302 304 308 310 308 304 309 316 322 322 317 315 316 318 313 308 296 281 276 242 213 204 194 194
210 209 228 237 248 255 260 49 108 309 276 260 257 276 294 304 280 282 323 331 325 327 327 323 317 313 314 316 325 320 312 313 314 311 306 303 301 279 263 249 228 212 198 195
195 211 223 235 250 262 265 174 120 191 249 297 302 289 288 273 250 278 303 312 315 315 315 322 316 310 308 314 322 314 313 313 310 308 305 302 294 275 264 251 237 210 194 187
192 201 210 215 233 249 207 167 197 225 269 299 282 274 280 284 288 290 288 291 299 307 314 323 320 311 307 308 310 309 308 311 312 310 307 299 294 283 273 238 231 211 189 184
202 204 204 208 225 243 199 218 226 233 263 271 276 279 277 280 284 283 277 273 278 288 295 307 307 310 310 310 310 303 304 311 314 314 311 304 299 290 266 230 220 204 189 185
227 212 234 253 251 254 258 260 258 250 255 266 271 275 274 275 278 276 270 267 269 274 278 282 290 297 303 308 309 294 300 309 311 308 306 301 296 293 269 239 220 204 194 190
235 212 234 252 261 272 260 260 266 268 269 274 275 274 271 272 274 273 274 270 266 269 273 272 270 277 286 296 296 293 300 309 307 303 302 300 296 292 267 257 235 217 209 198
228 227 230 243 243 250 264 263 263 267 270 271 272 275 273 267 272 273 273 273 273 269 267 269 269 272 280 288 289 290 293 293 297 298 298 297 296 289 267 254 293 253 211 198